This is the latest recevied weather packets stored in our database for station/object K1ZK-13. If no packets are shown the sender has not sent any weather packets the latest 10 day(s).
| Time | Temp. | Humidity | Pressure | Rain* | Wind** | Luminosity | Snow |
|---|---|---|---|---|---|---|---|
| 1777796122 | 3.89° C | 99% | 1011.7 hPa | 0 mm | - | 0 W/m² | - |
| 1777795515 | 3.89° C | 98% | 1011.8 hPa | 0 mm | - | 0 W/m² | - |
| 1777795212 | 3.89° C | 98% | 1011.7 hPa | 0 mm | - | 0 W/m² | - |
| 1777794909 | 3.89° C | 98% | 1011.8 hPa | 0 mm | - | 0 W/m² | - |
| 1777793996 | 4.44° C | 97% | 1011.7 hPa | 0 mm | - | 0 W/m² | - |
| 1777793693 | 4.44° C | 97% | 1011.6 hPa | 0 mm | - | 0 W/m² | - |
| 1777793089 | 3.89° C | 96% | 1011.7 hPa | 0 mm | - | 0 W/m² | - |
| 1777792786 | 3.89° C | 96% | 1011.6 hPa | 0 mm | - | 0 W/m² | - |
| 1777792483 | 3.89° C | 96% | 1011.8 hPa | 0 mm | - | 0 W/m² | - |
| 1777791272 | 3.89° C | 98% | 1011.8 hPa | 0 mm | - | 0 W/m² | - |
| 1777790969 | 3.89° C | 98% | 1011.8 hPa | 0 mm | - | 0 W/m² | - |
| 1777775513 | 5° C | 97% | 1013.8 hPa | 3.05 mm | - | 0 W/m² | - |
| 1777775209 | 5° C | 97% | 1013.8 hPa | 3.05 mm | - | 0 W/m² | - |
| 1777762484 | 5.56° C | 93% | 1013 hPa | 0 mm | - | 9 W/m² | - |
| 1777762181 | 5.56° C | 93% | 1013.2 hPa | 0 mm | - | 9 W/m² | - |
| 1777761877 | 5.56° C | 93% | 1013 hPa | 0 mm | - | 9 W/m² | - |
| 1777761574 | 5.56° C | 93% | 1012.9 hPa | 1.78 mm | - | 12 W/m² | - |
| 1777761272 | 5.56° C | 93% | 1012.9 hPa | 1.78 mm | - | 12 W/m² | - |
| 1777760362 | 6.11° C | 92% | 1012.6 hPa | 0 mm | - | 33 W/m² | - |
| 1777760059 | 6.11° C | 92% | 1012.7 hPa | 0 mm | - | 33 W/m² | - |
| 1777759756 | 6.11° C | 92% | 1012.7 hPa | 0 mm | - | 33 W/m² | - |
| 1777757031 | 6.67° C | 84% | 1012.8 hPa | 0 mm | - | 25 W/m² | - |
| 1777756728 | 6.67° C | 84% | 1012.8 hPa | 0 mm | - | 25 W/m² | - |
| 1777756423 | 6.67° C | 84% | 1012.6 hPa | 0 mm | - | 25 W/m² | - |
| 1777756121 | 6.67° C | 84% | 1012.7 hPa | 0 mm | - | 26 W/m² | - |
* Rain latest hour (hover to see other rain measurements)
** Current wind speed in m/s (hover to see current wind gust speed)